Time,TemperatureF,DewpointF,PressureIn,WindDirection,WindDirectionDegrees,WindSpeedMPH,WindSpeedGustMPH,Humidity,HourlyPrecipIn,Conditions,Clouds,dailyrainin,SoftwareType,DateUTC
2017-12-12 00:03:00,26.5,22.0,30.01,North,355,0.0,0.0,82,0.00,,,0.00,weatherlink.com 1.10,2017-12-12 05:03:00,
2017-12-12 00:18:00,26.6,22.0,30.01,North,355,0.0,0.0,83,0.00,,,0.00,weatherlink.com 1.10,2017-12-12 05:18:00,
2017-12-12 00:48:00,26.7,22.0,29.99,North,355,0.0,0.0,82,0.00,,,0.00,weatherlink.com 1.10,2017-12-12 05:48:00,
2017-12-12 01:18:00,26.7,22.0,29.98,North,356,0.0,1.0,82,0.00,,,0.00,weatherlink.com 1.10,2017-12-12 06:18:00,
2017-12-12 01:48:00,26.9,22.0,29.98,North,353,0.0,0.0,82,0.00,,,0.00,weatherlink.com 1.10,2017-12-12 06:48:00,
2017-12-12 02:33:00,26.9,22.0,29.97,North,352,0.0,0.0,80,0.00,,,0.00,weatherlink.com 1.10,2017-12-12 07:33:00,
2017-12-12 03:03:00,26.8,22.0,29.96,West,267,0.0,1.0,82,0.00,,,0.00,weatherlink.com 1.10,2017-12-12 08:03:00,
2017-12-12 03:18:00,26.7,22.0,29.96,West,261,0.0,1.0,83,0.00,,,0.00,weatherlink.com 1.10,2017-12-12 08:18:00,
2017-12-12 03:33:00,26.7,23.0,29.95,SSW,212,0.0,0.0,84,0.00,,,0.00,weatherlink.com 1.10,2017-12-12 08:33:00,
2017-12-12 03:48:00,26.7,23.0,29.94,SSW,212,0.0,0.0,86,0.00,,,0.00,weatherlink.com 1.10,2017-12-12 08:48:00,
2017-12-12 04:18:00,26.3,23.0,29.93,SW,232,0.0,0.0,87,0.00,,,0.00,weatherlink.com 1.10,2017-12-12 09:18:00,
2017-12-12 04:33:00,26.4,23.0,29.92,SW,232,0.0,0.0,88,0.00,,,0.00,weatherlink.com 1.10,2017-12-12 09:33:00,
2017-12-12 04:48:00,26.4,24.0,29.91,SW,232,0.0,0.0,89,0.00,,,0.00,weatherlink.com 1.10,2017-12-12 09:48:00,
2017-12-12 05:18:00,26.7,25.0,29.90,SW,232,0.0,0.0,91,0.00,,,0.00,weatherlink.com 1.10,2017-12-12 10:18:00,
2017-12-12 05:48:00,26.8,25.0,29.89,WSW,238,0.0,1.0,91,0.00,,,0.00,weatherlink.com 1.10,2017-12-12 10:48:00,
2017-12-12 06:18:00,26.8,25.0,29.88,West,271,0.0,1.0,92,0.00,,,0.00,weatherlink.com 1.10,2017-12-12 11:18:00,
2017-12-12 06:34:00,26.9,25.0,29.87,West,271,0.0,1.0,92,0.00,,,0.00,weatherlink.com 1.10,2017-12-12 11:34:00,
2017-12-12 07:04:00,26.8,25.0,29.85,NW,315,0.0,1.0,92,0.00,,,0.00,weatherlink.com 1.10,2017-12-12 12:04:00,
2017-12-12 07:34:00,26.9,25.0,29.82,NW,315,0.0,0.0,93,0.00,,,0.00,weatherlink.com 1.10,2017-12-12 12:34:00,
2017-12-12 07:49:00,26.8,25.0,29.81,NW,315,0.0,1.0,93,0.00,,,0.00,weatherlink.com 1.10,2017-12-12 12:49:00,
2017-12-12 08:34:00,26.1,24.0,29.81,West,271,0.0,0.0,92,0.00,,,0.00,weatherlink.com 1.10,2017-12-12 13:34:00,
2017-12-12 09:19:00,25.7,24.0,29.77,SE,134,0.0,1.0,92,0.00,,,0.00,weatherlink.com 1.10,2017-12-12 14:19:00,
2017-12-12 09:34:00,25.9,24.0,29.76,West,278,0.0,1.0,92,0.00,,,0.00,weatherlink.com 1.10,2017-12-12 14:34:00,
2017-12-12 09:49:00,25.9,24.0,29.75,West,271,0.0,1.0,92,0.00,,,0.00,weatherlink.com 1.10,2017-12-12 14:49:00,
2017-12-12 10:04:00,26.1,24.0,29.75,SW,226,1.0,2.0,92,0.00,,,0.00,weatherlink.com 1.10,2017-12-12 15:04:00,
2017-12-12 10:19:00,26.2,24.0,29.74,SSW,204,0.0,1.0,92,0.00,,,0.00,weatherlink.com 1.10,2017-12-12 15:19:00,
2017-12-12 10:34:00,26.5,25.0,29.72,WSW,258,0.0,1.0,92,0.00,,,0.00,weatherlink.com 1.10,2017-12-12 15:34:00,
2017-12-12 10:49:00,26.7,25.0,29.70,SW,221,0.0,1.0,92,0.00,,,0.00,weatherlink.com 1.10,2017-12-12 15:49:00,
2017-12-12 11:19:00,27.3,25.0,29.67,WSW,238,0.0,1.0,92,0.00,,,0.00,weatherlink.com 1.10,2017-12-12 16:19:00,
2017-12-12 11:34:00,27.5,26.0,29.65,SSE,148,0.0,2.0,92,0.00,,,0.00,weatherlink.com 1.10,2017-12-12 16:34:00,
2017-12-12 12:19:00,27.9,26.0,29.61,West,278,0.0,1.0,92,0.00,,,0.00,weatherlink.com 1.10,2017-12-12 17:19:00,
2017-12-12 12:34:00,28.0,26.0,29.59,West,278,0.0,1.0,92,0.00,,,0.00,weatherlink.com 1.10,2017-12-12 17:34:00,
2017-12-12 12:50:00,28.2,26.0,29.58,West,278,0.0,0.0,92,0.00,,,0.00,weatherlink.com 1.10,2017-12-12 17:50:00,
2017-12-12 13:20:00,28.3,26.0,29.55,North,11,0.0,0.0,92,0.00,,,0.00,weatherlink.com 1.10,2017-12-12 18:20:00,
2017-12-12 13:35:00,28.5,27.0,29.54,North,11,0.0,0.0,93,0.00,,,0.00,weatherlink.com 1.10,2017-12-12 18:35:00,
2017-12-12 13:50:00,28.7,27.0,29.53,WNW,302,0.0,0.0,93,0.00,,,0.00,weatherlink.com 1.10,2017-12-12 18:50:00,
2017-12-12 14:05:00,28.9,27.0,29.52,WNW,302,0.0,0.0,93,0.00,,,0.00,weatherlink.com 1.10,2017-12-12 19:05:00,
2017-12-12 14:20:00,28.8,27.0,29.50,NW,307,0.0,1.0,93,0.00,,,0.00,weatherlink.com 1.10,2017-12-12 19:20:00,
2017-12-12 14:35:00,28.7,27.0,29.49,NW,307,0.0,1.0,93,0.00,,,0.00,weatherlink.com 1.10,2017-12-12 19:35:00,
2017-12-12 14:50:00,28.9,27.0,29.49,NW,307,0.0,1.0,93,0.00,,,0.00,weatherlink.com 1.10,2017-12-12 19:50:00,
2017-12-12 15:05:00,29.0,27.0,29.48,North,3,0.0,2.0,93,0.00,,,0.00,weatherlink.com 1.10,2017-12-12 20:05:00,
2017-12-12 15:20:00,29.2,28.0,29.47,North,355,0.0,1.0,93,0.00,,,0.00,weatherlink.com 1.10,2017-12-12 20:20:00,
2017-12-12 15:35:00,29.4,28.0,29.47,West,269,0.0,1.0,93,0.00,,,0.00,weatherlink.com 1.10,2017-12-12 20:35:00,
2017-12-12 15:50:00,28.8,27.0,29.46,North,359,2.0,4.0,93,0.00,,,0.00,weatherlink.com 1.10,2017-12-12 20:50:00,
2017-12-12 16:05:00,28.8,27.0,29.45,North,11,0.0,1.0,93,0.00,,,0.00,weatherlink.com 1.10,2017-12-12 21:05:00,
2017-12-12 16:20:00,28.9,27.0,29.44,East,81,0.0,1.0,93,0.00,,,0.00,weatherlink.com 1.10,2017-12-12 21:20:00,
2017-12-12 16:35:00,28.8,27.0,29.42,West,281,0.0,2.0,93,0.00,,,0.00,weatherlink.com 1.10,2017-12-12 21:35:00,
2017-12-12 16:50:00,29.0,28.0,29.41,North,359,0.0,2.0,94,0.00,,,0.00,weatherlink.com 1.10,2017-12-12 21:50:00,
2017-12-12 17:06:00,28.7,27.0,29.39,NE,36,0.0,2.0,93,0.00,,,0.00,weatherlink.com 1.10,2017-12-12 22:06:00,
2017-12-12 18:06:00,28.3,27.0,29.37,North,357,0.0,1.0,93,0.00,,,0.00,weatherlink.com 1.10,2017-12-12 23:06:00,
2017-12-12 18:36:00,27.2,26.0,29.37,North,360,0.0,6.0,93,0.00,,,0.00,weatherlink.com 1.10,2017-12-12 23:36:00,
2017-12-12 18:51:00,27.3,26.0,29.36,NNE,27,1.0,1.0,94,0.00,,,0.00,weatherlink.com 1.10,2017-12-12 23:51:00,
2017-12-12 19:21:00,27.5,26.0,29.35,North,1,0.0,2.0,93,0.00,,,0.00,weatherlink.com 1.10,2017-12-13 00:21:00,
2017-12-12 19:36:00,27.5,26.0,29.34,North,350,0.0,1.0,94,0.00,,,0.00,weatherlink.com 1.10,2017-12-13 00:36:00,
2017-12-12 19:51:00,27.4,26.0,29.34,NNE,12,0.0,2.0,93,0.00,,,0.00,weatherlink.com 1.10,2017-12-13 00:51:00,
2017-12-12 20:06:00,27.3,26.0,29.34,NNW,346,2.0,3.0,93,0.00,,,0.00,weatherlink.com 1.10,2017-12-13 01:06:00,
2017-12-12 20:36:00,27.2,26.0,29.32,NNE,13,0.0,2.0,93,0.00,,,0.00,weatherlink.com 1.10,2017-12-13 01:36:00,
2017-12-12 20:51:00,27.2,26.0,29.31,NW,325,0.0,5.0,94,0.00,,,0.00,weatherlink.com 1.10,2017-12-13 01:51:00,
2017-12-12 21:06:00,27.4,26.0,29.29,NNW,336,0.0,3.0,94,0.00,,,0.00,weatherlink.com 1.10,2017-12-13 02:06:00,
2017-12-12 21:21:00,27.5,26.0,29.30,West,271,0.0,3.0,94,0.00,,,0.00,weatherlink.com 1.10,2017-12-13 02:21:00,
2017-12-12 21:36:00,27.5,26.0,29.30,WSW,253,0.0,1.0,94,0.00,,,0.00,weatherlink.com 1.10,2017-12-13 02:36:00,
2017-12-12 21:51:00,27.4,26.0,29.30,SW,225,0.0,1.0,94,0.00,,,0.00,weatherlink.com 1.10,2017-12-13 02:51:00,
2017-12-12 22:06:00,27.5,26.0,29.30,SW,225,0.0,0.0,94,0.00,,,0.00,weatherlink.com 1.10,2017-12-13 03:06:00,
2017-12-12 22:21:00,27.4,26.0,29.28,North,356,0.0,1.0,94,0.00,,,0.00,weatherlink.com 1.10,2017-12-13 03:21:00,
2017-12-12 22:36:00,27.1,26.0,29.28,North,350,0.0,1.0,94,0.00,,,0.00,weatherlink.com 1.10,2017-12-13 03:36:00,
2017-12-12 22:51:00,27.1,26.0,29.30,NNE,29,0.0,0.0,94,0.00,,,0.00,weatherlink.com 1.10,2017-12-13 03:51:00,
2017-12-12 23:06:00,27.1,26.0,29.27,NNE,29,0.0,0.0,94,0.00,,,0.00,weatherlink.com 1.10,2017-12-13 04:06:00,